When you browse on this site, cookies collect data to enhance your experience and personalize the content and advertising you see.
Visit our Privacy Policy to learn more. By continuing to use the site, you agree to this use of cookies and data.
  • In Hungary
  • List of Countries
  • For 7 days
  • Water Temperature
  • Weather Map
  • News
  • Weather Widgets
  • user-avatar
    Login

    Hourly Weather Capari

    Today, 20 November, Wednesday

    Time Temperature Precipitation Wind Pressure Humidity
    00:00 +7°C° 0.1 mm 2 mps 662 mmHg 95%
    01:00 +7°C° 0.1 mm 2 mps 661 mmHg 95%
    02:00 +8°C° 1 mm 2 mps 661 mmHg 95%
    03:00 +8°C° 1 mm 2 mps 660 mmHg 95%
    04:00 +8°C° 1 mm 3 mps 660 mmHg 96%
    05:00 +8°C° 4.2 mm 3 mps 660 mmHg 95%
    06:00 +8°C° 4.2 mm 3 mps 660 mmHg 95%
    07:00 +8°C° 4.2 mm 3 mps 660 mmHg 95%
    08:00 +7°C° 3.6 mm 3 mps 660 mmHg 93%
    09:00 +7°C° 3.6 mm 2 mps 660 mmHg 92%
    10:00 +6°C° 3.6 mm 2 mps 660 mmHg 91%
    11:00 +7°C° 0.7 mm 2 mps 660 mmHg 87%
    12:00 +8°C° 0.7 mm 2 mps 660 mmHg 83%
    13:00 +9°C° 0.7 mm 2 mps 660 mmHg 79%
    14:00 +9°C° 0.1 mm 2 mps 660 mmHg 81%
    15:00 +8°C° 0.1 mm 2 mps 660 mmHg 83%
    16:00 +8°C° 0.1 mm 2 mps 660 mmHg 85%
    17:00 +7°C° 0 mm 2 mps 660 mmHg 85%
    18:00 +7°C° 0 mm 1 mps 660 mmHg 84%
    19:00 +7°C° 0 mm 1 mps 660 mmHg 84%
    20:00 +7°C° 0 mm 1 mps 660 mmHg 84%
    21:00 +6°C° 0 mm 1 mps 660 mmHg 85%
    22:00 +6°C° 0 mm 1 mps 661 mmHg 85%
    23:00 +6°C° 0 mm 1 mps 660 mmHg 85%

    Tomorrow, 21 November, Thursday

    Time Temperature Precipitation Wind Pressure Humidity
    00:00 +6°C° 0 mm 1 mps 660 mmHg 85%
    01:00 +5°C° 0 mm 1 mps 660 mmHg 86%
    02:00 +4°C° 0 mm 0 mps 660 mmHg 85%
    03:00 +4°C° 0 mm 0 mps 660 mmHg 85%
    04:00 +4°C° 0 mm 0 mps 660 mmHg 85%
    05:00 +4°C° 0 mm 0 mps 660 mmHg 84%
    06:00 +3°C° 0 mm 0 mps 660 mmHg 84%
    07:00 +3°C° 0 mm 0 mps 660 mmHg 83%
    08:00 +5°C° 0 mm 0 mps 660 mmHg 77%
    09:00 +7°C° 0 mm 0 mps 660 mmHg 71%
    10:00 +9°C° 0 mm 1 mps 661 mmHg 65%
    11:00 +10°C° 0 mm 1 mps 660 mmHg 63%
    12:00 +10°C° 0 mm 1 mps 660 mmHg 61%
    13:00 +11°C° 0 mm 1 mps 660 mmHg 60%
    14:00 +9°C° 0 mm 0 mps 660 mmHg 65%
    15:00 +8°C° 0 mm 0 mps 659 mmHg 69%
    16:00 +7°C° 0 mm 0 mps 659 mmHg 74%
    17:00 +6°C° 0 mm 0 mps 659 mmHg 76%
    18:00 +6°C° 0 mm 0 mps 659 mmHg 78%
    19:00 +5°C° 0 mm 0 mps 659 mmHg 80%
    20:00 +5°C° 0 mm 0 mps 659 mmHg 80%
    21:00 +5°C° 0 mm 0 mps 659 mmHg 81%
    22:00 +6°C° 0 mm 1 mps 659 mmHg 81%
    23:00 +6°C° 0 mm 1 mps 659 mmHg 82%

    Day after tomorrow, 22 November, Friday

    Time Temperature Precipitation Wind Pressure Humidity
    00:00 +6°C° 0 mm 1 mps 659 mmHg 82%
    01:00 +6°C° 0 mm 1 mps 659 mmHg 83%
    02:00 +5°C° 0 mm 0 mps 659 mmHg 83%
    03:00 +5°C° 0 mm 0 mps 659 mmHg 83%
    04:00 +5°C° 0 mm 0 mps 658 mmHg 84%
    05:00 +5°C° 0 mm 0 mps 659 mmHg 84%
    06:00 +6°C° 0 mm 1 mps 659 mmHg 84%
    07:00 +6°C° 0 mm 1 mps 659 mmHg 83%
    08:00 +7°C° 0 mm 1 mps 659 mmHg 82%
    09:00 +7°C° 0 mm 1 mps 660 mmHg 81%
    10:00 +8°C° 0 mm 1 mps 660 mmHg 80%
    11:00 +8°C° 0.1 mm 1 mps 660 mmHg 79%
    12:00 +9°C° 0.1 mm 1 mps 660 mmHg 79%
    13:00 +9°C° 0.1 mm 1 mps 660 mmHg 78%
    14:00 +9°C° 0.1 mm 1 mps 660 mmHg 82%
    15:00 +8°C° 0.1 mm 1 mps 660 mmHg 85%
    16:00 +8°C° 0.1 mm 1 mps 660 mmHg 89%
    17:00 +7°C° 0 mm 1 mps 660 mmHg 90%
    18:00 +7°C° 0 mm 1 mps 660 mmHg 91%
    19:00 +7°C° 0 mm 1 mps 660 mmHg 93%
    20:00 +6°C° 0 mm 1 mps 660 mmHg 93%
    21:00 +6°C° 0 mm 1 mps 661 mmHg 93%
    22:00 +6°C° 0 mm 1 mps 661 mmHg 94%
    23:00 +6°C° 0 mm 1 mps 661 mmHg 94%

    23 November, Saturday

    Time Temperature Precipitation Wind Pressure Humidity
    00:00 +5°C° 0 mm 1 mps 661 mmHg 94%
    01:00 +4°C° 0 mm 0 mps 661 mmHg 94%
    02:00 +4°C° 0 mm 0 mps 661 mmHg 94%
    03:00 +4°C° 0 mm 0 mps 661 mmHg 94%
    04:00 +4°C° 0 mm 0 mps 661 mmHg 94%
    05:00 +5°C° 0 mm 1 mps 661 mmHg 94%
    06:00 +5°C° 0 mm 1 mps 661 mmHg 94%
    07:00 +5°C° 0 mm 1 mps 661 mmHg 94%
    08:00 +6°C° 0 mm 1 mps 661 mmHg 90%
    09:00 +7°C° 0 mm 1 mps 662 mmHg 86%
    10:00 +8°C° 0 mm 1 mps 662 mmHg 83%
    11:00 +9°C° 0.1 mm 1 mps 662 mmHg 80%
    12:00 +9°C° 0.1 mm 1 mps 661 mmHg 77%
    13:00 +9°C° 0.1 mm 2 mps 661 mmHg 74%
    14:00 +8°C° 0 mm 2 mps 661 mmHg 78%
    15:00 +8°C° 0 mm 1 mps 661 mmHg 82%
    16:00 +8°C° 0 mm 1 mps 660 mmHg 86%
    17:00 +7°C° 0 mm 1 mps 660 mmHg 88%
    18:00 +7°C° 0 mm 1 mps 660 mmHg 90%
    19:00 +6°C° 0 mm 1 mps 660 mmHg 92%
    20:00 +6°C° 0 mm 1 mps 660 mmHg 92%
    21:00 +6°C° 0 mm 1 mps 661 mmHg 93%
    22:00 +6°C° 0 mm 1 mps 661 mmHg 94%
    23:00 +6°C° 0 mm 1 mps 661 mmHg 94%

    24 November, Sunday

    Time Temperature Precipitation Wind Pressure Humidity
    00:00 +5°C° 0 mm 1 mps 661 mmHg 94%
    01:00 +5°C° 0 mm 1 mps 660 mmHg 95%
    02:00 +5°C° 0 mm 1 mps 660 mmHg 95%
    03:00 +5°C° 0 mm 1 mps 660 mmHg 95%
    04:00 +5°C° 0 mm 1 mps 660 mmHg 95%
    05:00 +5°C° 0 mm 1 mps 660 mmHg 95%
    06:00 +5°C° 0 mm 1 mps 660 mmHg 95%
    07:00 +5°C° 0 mm 1 mps 660 mmHg 95%
    08:00 +6°C° 0 mm 1 mps 660 mmHg 90%
    09:00 +8°C° 0 mm 1 mps 660 mmHg 84%
    10:00 +8°C° 0 mm 2 mps 660 mmHg 79%
    11:00 +8°C° 0 mm 2 mps 660 mmHg 78%
    12:00 +8°C° 0 mm 2 mps 659 mmHg 76%
    13:00 +9°C° 0 mm 2 mps 659 mmHg 74%
    14:00 +8°C° 0 mm 2 mps 658 mmHg 78%
    15:00 +8°C° 0 mm 2 mps 658 mmHg 81%
    16:00 +7°C° 0 mm 2 mps 657 mmHg 84%
    17:00 +7°C° 0.1 mm 2 mps 657 mmHg 86%
    18:00 +6°C° 0.1 mm 2 mps 656 mmHg 89%
    19:00 +6°C° 0.1 mm 2 mps 656 mmHg 91%
    20:00 +6°C° 0.1 mm 2 mps 656 mmHg 92%
    21:00 +6°C° 0.1 mm 2 mps 656 mmHg 93%
    22:00 +5°C° 0.1 mm 3 mps 655 mmHg 94%
    23:00 +5°C° 0.3 mm 3 mps 655 mmHg 94%

    25 November, Monday

    Time Temperature Precipitation Wind Pressure Humidity
    00:00 +5°C° 0.3 mm 3 mps 654 mmHg 95%
    01:00 +5°C° 0.3 mm 3 mps 654 mmHg 95%
    02:00 +5°C° 0.9 mm 3 mps 653 mmHg 95%
    03:00 +6°C° 0.9 mm 2 mps 653 mmHg 96%
    04:00 +6°C° 0.9 mm 2 mps 653 mmHg 96%
    05:00 +6°C° 1.4 mm 2 mps 653 mmHg 96%
    06:00 +6°C° 1.4 mm 2 mps 653 mmHg 96%
    07:00 +6°C° 1.4 mm 2 mps 652 mmHg 96%
    08:00 +6°C° 2.6 mm 2 mps 652 mmHg 95%
    09:00 +6°C° 2.6 mm 2 mps 652 mmHg 95%
    10:00 +7°C° 2.6 mm 1 mps 652 mmHg 94%
    11:00 +7°C° 3.2 mm 1 mps 652 mmHg 94%
    12:00 +6°C° 3.2 mm 2 mps 652 mmHg 94%
    13:00 +6°C° 3.2 mm 2 mps 651 mmHg 94%
    14:00 +6°C° 1.7 mm 1 mps 652 mmHg 94%
    15:00 +6°C° 1.7 mm 1 mps 652 mmHg 95%
    16:00 +6°C° 1.7 mm 1 mps 652 mmHg 95%
    17:00 +6°C° 0.4 mm 1 mps 652 mmHg 95%
    18:00 +6°C° 0.4 mm 1 mps 652 mmHg 95%
    19:00 +5°C° 0.4 mm 0 mps 653 mmHg 96%
    20:00 +6°C° 0.1 mm 1 mps 653 mmHg 96%
    21:00 +6°C° 0.1 mm 1 mps 653 mmHg 96%
    22:00 +6°C° 0.1 mm 1 mps 653 mmHg 96%
    23:00 +6°C° 0.1 mm 1 mps 653 mmHg 95%
    Show more